Location: Newark
(41.0400°S, 62.7845°W)
Time: 00:25:27
(UTC+00:00)

Courier 1B Rocket - Pass Details

Date: 03 December 2021
Orbit: 920 x 1202 km, 28.2° (Epoch: 20 January)

Event Time Altitude Azimuth Distance (km) Brightness Sun altitude
Rises 17:05:39 0° 289° (WNW) 4,072 8.5 66.8°
Reaches altitude 10° 17:08:49 10° 299° (WNW) 3,128 8.2 66.4°
Maximum altitude 17:15:30 31° 357° (N) 1,958 7.5 65.5°
Drops below altitude 10° 17:22:10 10° 56° (NE) 3,115 7.7 64.6°
Sets 17:25:19 0° 65° (ENE) 4,053 8.1 64.1°
